Bradshaw AFB, HI

6:18 AM HST on December 13, 2019 (GMT -1000)
Bradshaw Army Air Field

Weather History for PHSF - November, 2019

Change the Weather History Date:

Friday, November 15, 2019

  Actual Average Record
Temperature  
Mean Temperature 59 °F -  
Max Temperature 73 °F 65 °F 75 °F (2012)
Min Temperature 45 °F 46 °F 42 °F (2007)
Degree Days  
Heating Degree Days 6    
Growing Degree Days 9 (Base 50)    
Moisture  
Dew Point 47 °F    
Average Humidity 68    
Maximum Humidity 93    
Minimum Humidity 24    
Precipitation  
Precipitation 0.00 in - - ()
Sea Level Pressure  
Sea Level Pressure 30.08 in    
Wind  
Wind Speed 6 mph (North)    
Max Wind Speed 15 mph    
Max Gust Speed 21 mph    
Visibility 9 miles    
Events      
Averages and records for this station are not official NWS values.
T = Trace of Precipitation, MM = Missing Value Source: NWS Daily Summary

Daily Weather History Graph

Daily Weather History Graph

Search for Another Location

Airport or City:

Astronomy

Nov. 15, 2019 Rise Set
Actual Time 6:30 AM HST 5:42 PM HST
Civil Twilight 6:07 AM HST 6:05 PM HST
Nautical Twilight 5:40 AM HST 6:32 PM HST
Astronomical Twilight 5:14 AM HST 6:58 PM HST
Moon 8:41 PM HST (11/15) 9:25 AM HST (11/15)
Length of Visible Light 11h 58m
Length of Day
11h 12m
Waning Gibbous, 88% of the Moon is Illuminated
Nov 15
Waning Gibbous
Nov 19
Last Quarter
Nov 26
New
Dec 3
First Quarter
Dec 11
Full

Hourly Weather History & Observations

Time (HST) Temp. Windchill Dew Point Humidity Pressure Visibility Wind Dir Wind Speed Gust Speed Precip Events Conditions
12:58 AM 49.1 °F - 41.9 °F 76% 30.32 in 10.0 mi East 6.9 mph - N/A   Scattered Clouds
1:58 AM 48.4 °F - 44.4 °F 86% 30.32 in 10.0 mi Calm Calm - N/A   Partly Cloudy
2:58 AM 47.1 °F - 43.5 °F 87% 30.31 in 8.0 mi ESE 4.6 mph - N/A   Clear
3:58 AM 47.7 °F - 41.4 °F 79% 30.31 in 10.0 mi East 4.6 mph - N/A   Clear
4:58 AM 45.5 °F 41.8 °F 37.8 °F 74% 30.31 in 6.0 mi ESE 6.9 mph - N/A   Haze
5:58 AM 45.7 °F 43.4 °F 36.5 °F 70% 30.04 in 7.0 mi East 4.6 mph - N/A   Clear
6:58 AM 47.3 °F - 37.4 °F 68% 30.05 in 7.0 mi ENE 5.8 mph - N/A   Clear
7:58 AM 59.9 °F - 40.5 °F 49% 30.03 in 8.0 mi South 5.8 mph - N/A   Clear
8:58 AM 66.9 °F - 35.4 °F 31% 30.02 in 9.0 mi SSW 9.2 mph - N/A   Clear
9:58 AM 72.3 °F - 33.4 °F 24% 30.03 in 9.0 mi NW 4.6 mph - N/A   Clear
10:58 AM 73.8 °F - 43.3 °F 34% 30.02 in 9.0 mi NNW 9.2 mph - N/A   Clear
11:58 AM 73.8 °F - 49.1 °F 42% 30.00 in 9.0 mi NW 5.8 mph 16.1 mph N/A   Clear
12:58 PM 71.6 °F - 49.8 °F 46% 29.99 in 10.0 mi NW 13.8 mph - N/A   Clear
1:58 PM 72.1 °F - 48.4 °F 43% 29.96 in 10.0 mi NW 11.5 mph - N/A   Clear
2:58 PM 72.3 °F - 55.6 °F 56% 29.97 in 10.0 mi WNW 13.8 mph 20.7 mph N/A   Partly Cloudy
3:24 PM 71.6 °F - 57.2 °F 60% 29.97 in 9.0 mi WNW 13.8 mph - N/A   Scattered Clouds
3:58 PM 68.7 °F - 57.4 °F 67% 29.98 in 10.0 mi WNW 15.0 mph - N/A   Scattered Clouds
4:58 PM 63.3 °F - 57.4 °F 81% 30.02 in 10.0 mi WNW 8.1 mph - N/A   Clear
5:28 PM 60.8 °F - 57.2 °F 88% 30.04 in 10.0 mi NW 3.5 mph - N/A   Mostly Cloudy
5:58 PM 58.8 °F - 56.1 °F 91% 30.07 in 10.0 mi Calm Calm - N/A   Mostly Cloudy
6:03 PM 59.0 °F - 55.4 °F 88% 30.06 in 10.0 mi Calm Calm - N/A   Scattered Clouds
6:58 PM 55.2 °F - 53.2 °F 93% 30.08 in 8.0 mi Calm Calm - N/A   Clear
7:58 PM 53.8 °F - 50.4 °F 88% 30.05 in 10.0 mi ESE 3.5 mph - N/A   Clear
8:58 PM 52.9 °F - 48.9 °F 86% 30.05 in 10.0 mi Calm Calm - N/A   Clear
10:58 PM 50.4 °F - 45.3 °F 83% 30.04 in 10.0 mi ESE 3.5 mph - N/A   Clear
11:58 PM 48.6 °F - 42.8 °F 80% 30.04 in 6.0 mi Calm Calm - N/A   Haze